Regional Weather Roundup
Issued by NWS

Home | Current Version | Previous Version | Graphics & Text | Print | Product List | Glossary On
Versions: 1 2 3 4 5 6 7 8 9 10 11 12 13 14 15 16 17 18 19 20 21 22 23 24 25 26 27 28 29 30 31 32 33 34 35 36 37 38 39 40 41 42 43 44 45 46 47 48 49 50
000
ASUS43 KLOT 012100
RWRIL

ILLINOIS REGIONAL WEATHER ROUNDUP
NATIONAL WEATHER SERVICE CHICAGO/ROMEOVILLE IL
300 PM CST SUN FEB 01 2015

NOTE: "FAIR" INDICATES FEW OR NO CLOUDS BELOW 12,000 FEET WITH NO
SIGNIFICANT WEATHER AND/OR OBSTRUCTIONS TO VISIBILITY.

* THESE STATIONS ARE NOT UNDER NWS QUALITY CONTROL. THEY ALSO MAY NOT
  REPORT WEATHER SUCH AS PRECIPITATION OR FOG.

ILZ001-002-007-009-015-016-024-012200-
NORTHWEST ILLINOIS

CITY           SKY/WX    TMP DP  RH WIND       PRES   REMARKS
MOLINE         FOG       24  20  84 NE16G25   29.78R VSB 1/4 WCI  11
STERLING*        N/A    N/A N/A N/A MISG        N/A
$$

ILZ003-004-008-010-011-017-018-012200-
NORTH CENTRAL ILLINOIS

CITY           SKY/WX    TMP DP  RH WIND       PRES   REMARKS
ROCKFORD       SNOW      23  18  81 NE24G37   29.82F VSB 1/4 WCI   7
$$

ILZ005-006-012>014-019>023-012200-
NORTHEAST ILLINOIS

CITY           SKY/WX    TMP DP  RH WIND       PRES   REMARKS
CHICAGO-OHARE  HVY SNOW  23  21  92 NE22G33   29.75F VSB 1/4 WCI   8
CHICAGO-MIDWAY LGT SNOW  27  24  89 NE21G32   29.73F VSB 3/4 WCI  13
AURORA         SNOW      25  21  85 NE28G39   29.73S VSB 1/4 WCI   9
WAUKEGAN       HVY SNOW  21  19  92 NE25G33   29.82F VSB<1/4 WCI   4
DUPAGE AIRPORT SNOW      24  20  84 NE24G35   29.74F VSB 1/2 WCI   8
WHEELING       HVY SNOW  23  20  88 NE21G35   29.80F VSB 1/4 WCI   8
NORTHERLY ISL    N/A     26  25  96 NE26        N/A  WCI  11
$$

LMZ740>746-012200-
SOUTHERN LAKE MICHIGAN

STATION/POSITION SKY/WX   TEMP    WIND        PRES    VSBY  WAVE
                          AIR SEA DIR/SP/G                  HT/PER
                          (F)     (DEG/KT/KT) (MB)    (MI)  (FT/S)
WAUKEGAN HARBOR            23      40/ 35/ 39   N/A
HARRISON CRIB              25      50/ 33/ 39   N/A
BURNHAM HARBOR             26      40/ 22/ 27   N/A
CALUMET HARBOR             26      40/ 21/ 28   N/A
MICHIGAN CITY              26      50/ 18/ 23   N/A
$$

ILZ025>027-034>036-040-047-049-050-058-095>099-012200-
WEST-CENTRAL ILLINOIS

CITY           SKY/WX    TMP DP  RH WIND       PRES   REMARKS
QUINCY         LGT SNOW  33  31  92 N9        29.67R FOG     WCI  25
$$

ILZ028>032-037-038-041>044-048-051>054-059>061-012200-
CENTRAL ILLINOIS

CITY           SKY/WX    TMP DP  RH WIND       PRES   REMARKS
DECATUR        CLOUDY    35  33  92 W6        29.61S WCI  30
PEORIA         LGT SNOW  33  29  85 NE15G23   29.65R VSB 1   WCI  23
SPRINGFIELD    CLOUDY    34  32  92 W6        29.63R WCI  29
TAYLORVILLE    NOT AVBL
$$

ILZ033-039-045-046-055>057-062-063-012200-
EAST-CENTRAL ILLINOIS

CITY           SKY/WX    TMP DP  RH WIND       PRES   REMARKS
CHAMPAIGN      LGT SNOW  34  33  96 CALM      29.59F VSB 3/4
MATTOON        LGT RAIN  35  34  96 SW5       29.59S FOG     WCI  31
$$

ILZ079-100>102-012200-
SOUTHWEST ILLINOIS

CITY           SKY/WX    TMP DP  RH WIND       PRES   REMARKS
ALTON          CLOUDY    41  39  93 W12       29.65
BELLEVILLE     CLOUDY    42  42  99 W8        29.64R
CAHOKIA*       CLOUDY    42  38  85 W10       29.65R
$$

ILZ064>066-069>071-074>076-080>082-084>086-088>090-092>094-012200-
SOUTH-CENTRAL ILLINOIS

CITY           SKY/WX    TMP DP  RH WIND       PRES   REMARKS
CARBONDALE     CLOUDY    47  43  86 W9        29.64R
MARION         CLOUDY    48  46  93 SW12      29.65R
MT. VERNON     CLOUDY    45  39  81 W9        29.62S
$$

ILZ067-068-072-073-078-083-087-091-012200-
SOUTHEAST ILLINOIS

CITY           SKY/WX    TMP DP  RH WIND       PRES   REMARKS
LAWRENCEVILLE  LGT RAIN  44  44 100 SW9       29.60S FOG
$$

ABBREVIATIONS USED IN REMARKS
   TC - TEMPERATURE IN CELSIUS
  WCI - WIND CHILL INDEX
   HX - HEAT INDEX
  VSB - VISIBILITY
$$



USA.gov is the U.S. government's official web portal to all federal, state and local government web resources and services.